Theta_e
349 347 341 340 338 337 336 335 337 338 339 340 339 338 338 338 340 341 340 340 339 339 338 337 337 338 338 337 336 335 333 330 329 329 331 334 334 335 333 332 335 339 333
349 347 342 340 338 337 337 337 336 336 336 336 336 336 337 339 341 341 340 338 337 337 337 337 337 336 336 335 335 334 331 329 329 329 332 336 335 332 332 332 334 336 333
348 348 345 340 339 338 338 338 337 337 337 337 337 338 339 339 340 339 338 337 337 338 337 336 336 336 335 335 335 333 330 330 330 332 335 338 339 332 332 334 334 335 334
346 346 344 343 341 340 339 339 339 338 337 337 337 337 338 339 339 339 339 339 339 338 337 337 337 336 335 335 335 332 330 330 330 332 338 337 338 333 333 334 333 333 332
343 343 342 344 343 342 342 342 340 340 339 338 338 337 337 337 337 338 339 339 339 339 340 340 339 336 334 334 334 331 331 329 329 332 336 337 338 335 332 332 332 332 333
342 340 339 340 342 342 343 342 342 341 340 340 340 339 339 339 338 337 337 337 338 338 339 340 339 336 334 334 334 331 331 331 327 336 335 336 336 336 331 334 331 329 326
339 339 336 338 338 339 340 341 341 341 341 341 341 340 340 340 339 338 337 336 336 337 337 339 340 336 334 334 335 333 331 331 330 334 334 335 337 336 332 329 328 327 323
334 335 336 336 337 338 338 338 339 339 339 340 340 340 340 340 340 339 339 338 336 336 336 336 336 337 335 334 334 334 334 332 332 332 334 335 336 335 332 328 328 329 329
327 328 329 331 334 335 335 336 337 337 337 337 337 337 336 338 339 339 340 339 339 338 337 336 336 336 337 335 333 334 333 332 332 331 334 333 336 334 331 333 329 329 328
320 321 321 322 323 327 330 327 330 329 330 333 334 336 337 340 339 340 340 341 340 339 338 337 337 336 335 336 334 333 333 332 331 331 332 334 335 334 329 334 330 329 328
316 316 316 317 318 318 319 320 323 324 326 328 326 326 333 335 335 335 337 337 337 338 338 337 337 337 337 336 335 334 332 333 332 331 332 333 335 334 331 333 330 327 326
313 312 313 314 314 314 314 315 316 317 319 319 316 319 323 327 328 328 331 334 335 335 336 337 339 338 337 338 336 336 336 336 333 331 331 332 333 333 331 332 330 325 324
311 310 310 311 312 313 312 313 312 313 315 314 313 314 316 316 316 316 319 321 326 329 331 334 335 338 338 337 336 338 338 337 334 332 331 331 331 331 331 331 332 330 326
310 309 308 309 310 311 311 311 311 311 312 312 311 312 312 312 313 312 314 314 315 317 318 321 326 331 334 336 337 338 338 337 336 334 332 331 332 331 330 332 333 332 331
309 308 308 308 309 310 310 310 310 310 310 311 310 310 310 310 310 310 312 312 312 312 312 314 316 320 325 329 333 334 337 336 337 336 335 333 331 331 330 331 335 335 333
307 307 307 307 308 308 309 309 309 309 309 309 309 309 309 308 309 309 310 310 310 310 311 312 314 315 315 318 324 327 329 334 335 337 337 335 334 332 331 329 332 335 335
306 306 305 305 307 307 308 308 307 307 307 307 307 307 307 307 307 307 308 309 308 309 310 310 310 311 311 312 312 314 320 324 331 334 335 337 335 333 332 331 328 332 335
306 306 305 305 306 306 307 307 307 306 306 306 306 306 306 306 305 306 307 307 306 307 307 309 308 309 309 309 309 310 311 314 318 324 332 335 336 337 334 332 330 329 333
305 305 305 304 305 305 306 306 306 306 305 305 305 304 304 304 304 304 305 305 305 305 306 306 306 307 307 308 308 308 309 309 311 315 318 325 333 335 336 334 332 329 329
304 304 304 303 303 304 304 304 305 304 304 304 303 303 303 303 303 303 304 304 304 303 304 304 304 304 304 306 307 307 307 308 309 311 315 322 325 331 335 335 334 331 329
304 303 303 303 302 302 302 302 303 303 303 303 302 302 301 302 302 302 302 302 302 302 302 303 302 302 303 303 304 305 305 306 309 311 314 318 321 325 330 333 334 334 332
303 302 302 302 301 301 301 301 301 301 301 301 301 301 300 300 300 300 300 300 300 300 300 300 300 300 300 300 302 302 307 306 307 307 306 310 310 315 318 329 333 334 334
303 302 301 301 300 300 300 300 300 301 301 300 300 300 299 299 298 299 299 299 298 298 297 297 297 297 297 298 300 301 304 306 304 303 304 305 307 306 309 311 317 332 333
303 301 301 300 300 299 299 299 300 299 299 299 299 299 299 299 298 298 298 298 298 297 295 294 294 294 295 296 297 299 299 300 302 302 302 302 303 306 310 312 316 317 329
303 302 301 300 300 299 299 298 298 298 298 298 298 298 298 298 298 297 297 296 296 296 294 293 293 294 295 294 296 297 297 299 300 303 303 303 302 303 305 307 308 310 313
302 302 301 300 299 299 298 298 297 297 296 297 297 297 297 297 296 295 295 295 294 294 292 291 292 293 293 293 293 294 294 296 297 298 300 300 301 301 303 305 308 310 312
Wind_Speed
15 11 7 6 5 4 4 5 5 4 3 3 3 3 3 3 3 3 3 2 2 1 1 1 1 1 1 1 1 2 3 5 5 6 6 4 4 6 6 6 5 4 5
17 10 8 8 7 6 5 5 4 4 3 3 3 3 2 2 1 1 1 1 1 1 2 2 2 1 0 1 0 1 2 4 4 6 4 2 2 5 5 6 3 6 6
17 14 10 8 6 6 6 5 4 4 3 4 4 4 3 3 3 3 2 2 2 2 2 3 2 1 2 2 2 1 2 3 3 5 4 6 2 6 6 7 6 4 4
12 13 12 11 8 6 6 5 3 3 3 2 2 4 5 4 4 5 5 5 4 4 3 3 3 3 4 4 4 3 4 3 3 5 6 2 2 4 4 4 4 4 4
13 12 14 13 10 8 7 6 4 3 2 2 2 2 3 5 5 5 6 6 6 5 6 6 6 6 6 6 6 6 6 5 6 7 8 4 3 1 3 3 7 6 7
11 13 12 12 11 10 8 7 5 3 2 2 2 3 4 5 6 6 6 6 8 7 7 7 9 9 9 8 8 8 8 9 9 13 8 5 2 5 3 7 5 3 4
10 12 13 11 11 9 9 8 7 5 4 3 3 3 4 5 5 6 7 8 8 9 8 9 10 11 11 10 10 11 11 12 10 15 9 7 11 6 5 7 6 5 7
11 11 12 14 14 10 8 7 6 4 3 3 3 3 5 6 6 7 7 9 11 11 11 11 12 13 13 12 13 13 14 15 12 14 11 10 8 6 7 9 8 8 8
13 13 12 12 13 15 13 9 8 7 5 4 4 5 5 6 7 8 9 9 11 13 14 15 15 15 15 14 14 15 16 16 16 16 16 9 10 10 9 10 10 10 10
14 14 13 13 13 12 11 16 15 15 14 13 11 9 7 7 9 10 10 8 12 13 14 15 16 17 18 18 17 16 17 18 17 17 19 11 13 9 9 12 13 13 13
15 15 15 15 14 13 12 13 14 16 17 16 15 16 14 12 12 11 10 11 11 11 15 17 18 18 19 20 21 20 18 16 18 18 17 13 12 12 13 15 15 14 15
14 15 15 15 15 13 12 13 12 13 13 15 17 16 14 13 13 14 16 17 19 15 13 13 16 18 19 18 19 24 18 15 17 20 18 16 13 15 16 17 18 17 17
13 14 14 13 14 14 13 12 12 11 12 12 16 18 15 14 15 15 14 14 14 16 16 18 14 12 15 19 23 22 18 17 18 19 21 20 19 19 19 21 21 20 19
12 13 14 14 13 14 11 11 11 11 12 12 14 18 16 14 15 16 15 16 15 15 17 17 17 18 19 17 19 23 24 23 24 23 22 23 21 21 21 23 24 23 22
12 13 13 13 13 13 12 11 11 12 12 12 13 16 17 16 16 16 16 15 15 16 17 18 18 19 20 20 20 20 23 26 27 28 25 24 20 22 22 26 26 27 25
11 11 11 12 12 11 11 11 11 11 11 11 12 15 16 16 16 16 15 15 16 17 17 17 19 20 20 20 21 21 25 23 27 30 29 29 29 27 26 28 31 30 29
10 9 10 10 11 11 9 9 9 10 10 11 11 13 16 16 17 17 15 15 16 18 18 17 18 18 20 21 22 23 22 27 27 25 33 32 27 29 29 27 33 34 34
9 9 9 9 9 8 8 7 7 9 8 9 10 12 15 16 17 17 15 15 18 17 17 18 19 20 20 22 23 24 25 25 27 31 29 30 34 28 29 31 31 36 37
9 8 8 9 9 9 8 6 7 8 9 9 10 11 14 14 16 16 15 16 18 17 16 17 19 19 22 23 24 26 27 27 27 26 31 37 32 35 35 28 32 34 40
9 8 8 8 9 7 8 7 6 8 9 9 10 12 14 14 16 16 14 16 17 17 17 18 20 20 20 23 26 27 26 27 28 29 28 29 33 33 33 40 27 33 37
8 8 7 8 9 8 9 9 7 8 8 9 11 12 14 15 16 16 16 16 16 17 18 18 19 21 22 22 25 29 25 33 26 25 22 23 24 30 34 37 41 29 31
8 7 7 7 8 9 7 8 7 8 8 8 10 11 12 14 14 14 16 17 18 18 17 19 20 21 20 20 22 23 8 22 15 26 29 27 32 26 28 29 38 40 34
8 7 7 7 7 9 9 8 9 8 9 10 12 12 15 14 15 15 15 17 18 17 18 19 19 19 20 20 18 11 6 6 17 24 29 31 32 41 38 36 36 35 40
9 7 7 7 7 7 9 8 9 10 11 12 13 14 16 15 15 16 16 17 18 18 17 18 18 19 19 19 20 11 18 21 6 11 19 32 36 34 31 32 29 34 41
11 8 7 6 6 6 7 8 9 10 11 12 14 16 15 15 14 15 16 19 18 18 18 19 20 20 16 19 20 23 23 22 24 14 16 19 31 33 34 35 38 41 41
11 9 7 6 5 4 5 7 8 9 12 12 14 14 14 15 15 16 17 18 18 19 19 21 19 19 20 20 20 20 20 18 18 18 14 14 21 31 37 38 36 36 38
Wind_Direction
55 75 85 86 86 94 98 97 97 87 84 88 78 71 72 82 85 102 109 103 105 104 72 22 27 54 82 76 56 43 20 0 6 16 18 31 358 4 8 2 11 13 341
73 78 80 87 92 90 88 85 85 83 62 50 57 57 56 41 16 6 44 7 321 7 359 346 -0 19 44 41 308 350 348 345 4 12 358 10 35 5 21 19 14 18 16
65 77 70 88 94 105 105 99 93 85 64 34 25 23 11 5 340 313 320 308 314 319 329 322 328 308 312 294 276 267 298 331 345 8 356 239 81 33 19 49 35 75 57
61 62 69 67 74 79 90 98 104 102 88 61 27 8 351 345 331 319 317 312 314 319 316 311 298 294 297 287 269 253 279 304 316 333 310 141 41 35 53 74 59 65 55
64 67 76 80 78 74 77 76 78 78 72 32 13 341 328 322 315 316 310 306 302 310 312 305 294 295 291 283 271 264 276 295 306 292 305 47 13 120 100 101 98 100 109
73 66 78 85 83 81 77 72 70 71 58 21 353 328 316 319 312 309 303 301 299 294 296 295 294 298 298 291 277 270 277 290 297 283 271 269 204 215 168 153 160 138 123
69 66 58 72 75 73 71 71 67 55 41 21 337 317 307 303 294 297 301 296 292 290 293 295 298 300 297 291 280 274 277 285 296 296 293 270 189 211 209 195 196 175 141
68 59 57 43 51 56 71 72 71 66 59 34 5 320 311 302 297 288 289 295 296 292 289 286 288 293 293 290 286 277 273 278 284 276 277 256 222 227 224 206 203 194 187
70 66 56 50 42 27 34 60 59 50 34 15 5 345 327 330 312 301 298 298 293 293 294 293 292 289 288 288 284 279 275 274 277 280 283 281 244 243 218 220 214 206 206
63 59 54 50 45 40 36 35 32 35 33 22 8 4 5 15 337 333 340 303 295 286 289 288 289 290 286 284 281 277 275 274 274 272 274 246 232 227 231 223 221 217 211
62 55 48 44 43 40 35 33 31 28 27 26 18 9 8 359 350 343 322 312 291 298 293 288 287 285 285 284 285 276 269 264 269 266 261 248 229 251 243 224 227 221 217
64 55 49 47 44 44 40 32 30 27 26 22 16 13 5 359 352 353 347 350 352 325 323 302 306 299 286 276 276 266 241 255 260 267 266 256 253 260 245 227 227 229 230
70 61 52 49 49 54 43 44 39 33 29 22 16 18 8 5 357 354 350 348 342 338 339 332 319 317 298 286 282 283 255 252 262 263 267 258 254 258 250 232 233 232 233
74 64 55 47 46 45 49 42 34 28 26 21 15 14 10 5 359 357 353 351 347 341 337 333 326 322 309 309 293 283 285 277 275 268 266 259 253 255 253 235 231 235 236
72 61 52 46 41 40 39 35 30 26 18 17 13 11 11 6 357 353 350 349 346 342 339 333 327 322 315 311 306 299 285 275 272 270 266 267 255 251 253 240 231 233 234
82 67 56 48 41 38 36 31 28 19 14 12 8 6 7 5 356 351 347 345 343 341 337 333 329 324 317 312 310 307 296 292 279 274 268 253 254 249 250 245 236 230 232
88 73 58 46 38 35 32 29 24 12 12 8 4 1 3 1 355 350 344 344 341 340 337 336 333 328 323 319 312 308 307 297 285 285 278 277 261 247 244 247 239 233 229
89 73 60 50 41 40 34 30 26 15 13 7 4 360 357 356 354 349 344 342 337 338 336 336 336 331 326 322 318 313 310 305 302 288 278 277 273 275 243 236 241 234 231
89 76 63 47 40 38 31 33 28 16 14 9 4 0 356 354 353 352 344 341 341 339 338 337 333 331 324 321 318 313 309 302 296 293 286 272 276 274 274 240 233 235 232
99 86 75 59 45 43 38 32 26 12 9 6 3 359 358 354 352 353 346 343 343 340 339 338 335 332 327 323 319 313 308 300 293 288 284 285 273 270 269 264 253 234 235
113 98 81 66 49 48 38 28 16 4 2 1 358 355 356 353 350 350 345 342 343 340 337 338 336 332 331 333 324 323 310 289 287 283 299 292 285 272 263 260 254 245 234
125 113 96 76 56 47 41 26 10 359 354 351 348 348 348 347 347 345 341 340 340 337 337 339 339 335 329 337 329 317 319 315 308 331 321 315 319 321 313 284 257 247 242
136 123 105 84 65 47 35 21 10 359 352 348 346 344 343 343 345 343 341 340 337 337 334 334 336 337 327 330 333 325 324 314 322 305 312 311 314 316 310 306 304 267 244
147 130 109 86 67 48 34 26 13 2 352 344 339 337 338 337 338 339 339 338 334 333 330 329 327 326 324 320 325 313 308 307 314 308 297 303 302 300 303 307 306 297 268
154 142 123 107 83 55 39 27 13 2 349 339 336 334 333 334 334 335 335 336 332 329 329 326 325 326 323 316 310 311 309 302 295 286 298 307 302 298 299 298 298 296 293
156 151 139 133 101 70 42 24 12 358 345 339 335 330 333 330 332 333 332 332 330 328 328 325 323 320 322 317 316 312 310 312 308 306 299 302 298 298 296 294 294 293 291